This is the latest recevied weather packets stored in our database for station/object N8QF. If no packets are shown the sender has not sent any weather packets the latest 10 day(s).
| Time | Temp. | Humidity | Pressure | Rain* | Wind** | Luminosity | Snow |
|---|---|---|---|---|---|---|---|
| 1777057560 | 26.11° C | 41% | 1006.9 hPa | 0 mm | - | - | - |
| 1777056960 | 26.67° C | 42% | 1007 hPa | 0 mm | - | - | - |
| 1777056360 | 27.22° C | 42% | 1007.1 hPa | 0 mm | - | - | - |
| 1777055759 | 26.11° C | 44% | 1007.3 hPa | 0 mm | - | - | - |
| 1777055460 | 26.67° C | 41% | 1007.3 hPa | 0 mm | - | - | - |
| 1777055159 | 26.11° C | 43% | 1007.4 hPa | 0 mm | - | - | - |
| 1777054858 | 26.11° C | 43% | 1007.3 hPa | 0 mm | - | - | - |
| 1777054558 | 26.11° C | 43% | 1007.4 hPa | 0 mm | - | - | - |
| 1777054258 | 26.11° C | 41% | 1007.4 hPa | 0 mm | - | - | - |
| 1777053957 | 26.11° C | 42% | 1007.4 hPa | 0 mm | - | - | - |
| 1777053657 | 26.11° C | 43% | 1007.4 hPa | 0 mm | - | - | - |
| 1777053357 | 26.11° C | 43% | 1007.4 hPa | 0 mm | - | - | - |
| 1777053057 | 26.11° C | 42% | 1007.5 hPa | 0 mm | - | - | - |
| 1777052757 | 26.11° C | 41% | 1007.5 hPa | 0 mm | - | - | - |
| 1777052456 | 26.11° C | 43% | 1007.6 hPa | 0 mm | - | - | - |
| 1777052155 | 26.11° C | 43% | 1007.8 hPa | 0 mm | - | - | - |
| 1777051855 | 26.11° C | 44% | 1007.7 hPa | 0 mm | - | - | - |
| 1777051554 | 26.11° C | 43% | 1007.9 hPa | 0 mm | - | - | - |
| 1777051254 | 26.11° C | 42% | 1007.9 hPa | 0 mm | - | - | - |
| 1777050953 | 26.11° C | 44% | 1008 hPa | 0 mm | - | - | - |
| 1777050652 | 25.56° C | 42% | 1008 hPa | 0 mm | - | - | - |
| 1777050352 | 26.11° C | 46% | 1008.1 hPa | 0 mm | - | - | - |
| 1777050052 | 25.56° C | 43% | 1008.1 hPa | 0 mm | - | - | - |
| 1777049752 | 26.11° C | 43% | 1008.2 hPa | 0 mm | - | - | - |
| 1777049451 | 25.56° C | 44% | 1008.2 hPa | 0 mm | - | - | - |
* Rain since midnight (hover to see other rain measurements)
** Current wind speed in m/s (hover to see current wind gust speed)